Time,TemperatureF,DewpointF,PressureIn,WindDirection,WindDirectionDegrees,WindSpeedMPH,WindSpeedGustMPH,Humidity,HourlyPrecipIn,Conditions,Clouds,dailyrainin,SoftwareType,DateUTC
2013-06-16 00:02:00,65.0,54.0,29.95,NW,320,2.0,4.0,68,0.00,,,0.00,,2013-06-16 04:02:00,
2013-06-16 00:12:00,65.0,54.0,29.95,NNW,330,3.0,5.0,68,0.00,,,0.00,,2013-06-16 04:12:00,
2013-06-16 00:23:00,65.0,54.0,29.96,NNW,330,2.0,7.0,67,0.00,,,0.00,,2013-06-16 04:23:00,
2013-06-16 00:34:00,65.0,53.0,29.95,NNW,335,2.0,7.0,66,0.00,,,0.00,,2013-06-16 04:34:00,
2013-06-16 00:43:00,65.0,53.0,29.94,NW,320,1.0,6.0,66,0.00,,,0.00,,2013-06-16 04:43:00,
2013-06-16 00:53:00,66.0,54.0,29.95,North,360,2.0,5.0,66,0.00,,,0.00,,2013-06-16 04:53:00,
2013-06-16 01:02:00,66.0,54.0,29.95,NNW,329,3.0,7.0,66,0.00,,,0.00,,2013-06-16 05:02:00,
2013-06-16 01:12:00,66.0,54.0,29.95,NW,326,3.0,10.0,66,0.00,,,0.00,,2013-06-16 05:12:00,
2013-06-16 01:22:00,66.0,55.0,29.95,NW,326,3.0,6.0,67,0.00,,,0.00,,2013-06-16 05:22:00,
2013-06-16 01:34:00,65.0,54.0,29.95,NNW,328,3.0,7.0,67,0.00,,,0.00,,2013-06-16 05:34:00,
2013-06-16 01:43:00,65.0,54.0,29.94,NW,325,3.0,7.0,67,0.00,,,0.00,,2013-06-16 05:43:00,
2013-06-16 01:52:00,65.0,54.0,29.93,NNW,327,6.0,11.0,67,0.00,,,0.00,,2013-06-16 05:52:00,
2013-06-16 02:01:00,65.0,54.0,29.94,NW,318,4.0,11.0,68,0.00,,,0.00,,2013-06-16 06:01:00,
2013-06-16 02:12:00,65.0,54.0,29.94,NNW,333,3.0,7.0,68,0.00,,,0.00,,2013-06-16 06:12:00,
2013-06-16 02:23:00,65.0,55.0,29.94,NW,326,4.0,7.0,69,0.00,,,0.00,,2013-06-16 06:23:00,
2013-06-16 02:33:00,65.0,55.0,29.93,NNW,327,2.0,6.0,69,0.00,,,0.00,,2013-06-16 06:33:00,
2013-06-16 02:43:00,65.0,55.0,29.93,NNW,334,3.0,7.0,70,0.00,,,0.00,,2013-06-16 06:43:00,
2013-06-16 02:52:00,65.0,55.0,29.93,NW,325,4.0,7.0,70,0.00,,,0.00,,2013-06-16 06:52:00,
2013-06-16 03:01:00,65.0,55.0,29.92,NNW,341,3.0,7.0,70,0.00,,,0.00,,2013-06-16 07:01:00,
2013-06-16 03:12:00,65.0,55.0,29.92,NW,316,1.0,8.0,71,0.00,,,0.00,,2013-06-16 07:12:00,
2013-06-16 03:23:00,65.0,55.0,29.93,NNW,327,2.0,7.0,71,0.00,,,0.00,,2013-06-16 07:23:00,
2013-06-16 03:33:00,64.0,54.0,29.93,NW,321,1.0,8.0,71,0.00,,,0.00,,2013-06-16 07:33:00,
2013-06-16 03:43:00,64.0,55.0,29.92,NW,317,4.0,7.0,72,0.00,,,0.00,,2013-06-16 07:43:00,
2013-06-16 03:53:00,64.0,55.0,29.91,NW,325,2.0,7.0,72,0.00,,,0.00,,2013-06-16 07:53:00,
2013-06-16 04:02:00,64.0,55.0,29.90,WNW,296,0.0,5.0,72,0.00,,,0.00,,2013-06-16 08:02:00,
2013-06-16 04:12:00,64.0,55.0,29.89,NW,306,1.0,6.0,72,0.00,,,0.00,,2013-06-16 08:12:00,
2013-06-16 04:22:00,64.0,55.0,29.90,NW,309,0.0,4.0,72,0.00,,,0.00,,2013-06-16 08:22:00,
2013-06-16 04:33:00,64.0,55.0,29.89,NW,304,2.0,4.0,72,0.00,,,0.00,,2013-06-16 08:33:00,
2013-06-16 04:43:00,64.0,54.0,29.89,WNW,300,2.0,6.0,71,0.00,,,0.00,,2013-06-16 08:43:00,
2013-06-16 04:54:00,65.0,55.0,29.89,NNW,331,3.0,10.0,70,0.00,,,0.00,,2013-06-16 08:54:00,
2013-06-16 05:02:00,65.0,55.0,29.89,NW,306,3.0,9.0,70,0.00,,,0.00,,2013-06-16 09:02:00,
2013-06-16 05:11:00,65.0,55.0,29.88,WNW,292,5.0,11.0,70,0.00,,,0.00,,2013-06-16 09:11:00,
2013-06-16 05:22:00,66.0,56.0,29.88,NW,319,3.0,10.0,69,0.00,,,0.00,,2013-06-16 09:22:00,
2013-06-16 05:33:00,66.0,56.0,29.88,NW,306,2.0,6.0,69,0.00,,,0.00,,2013-06-16 09:33:00,
2013-06-16 05:43:00,65.0,55.0,29.88,NNW,330,3.0,6.0,70,0.00,,,0.00,,2013-06-16 09:43:00,
2013-06-16 05:52:00,65.0,55.0,29.88,NW,320,2.0,6.0,70,0.00,,,0.00,,2013-06-16 09:52:00,
2013-06-16 06:02:00,65.0,55.0,29.87,WNW,300,2.0,9.0,70,0.00,,,0.00,,2013-06-16 10:02:00,
2013-06-16 06:12:00,65.0,55.0,29.87,WNW,300,2.0,9.0,70,0.00,,,0.00,,2013-06-16 10:12:00,
2013-06-16 06:22:00,66.0,56.0,29.87,NW,323,3.0,9.0,69,0.00,,,0.00,,2013-06-16 10:22:00,
2013-06-16 06:33:00,66.0,55.0,29.87,NW,315,2.0,10.0,68,0.00,,,0.00,,2013-06-16 10:33:00,
2013-06-16 06:43:00,66.0,55.0,29.87,WNW,303,3.0,9.0,68,0.00,,,0.00,,2013-06-16 10:43:00,
2013-06-16 06:53:00,66.0,55.0,29.87,NW,311,2.0,13.0,67,0.00,,,0.00,,2013-06-16 10:53:00,
2013-06-16 07:02:00,66.0,55.0,29.86,NW,325,3.0,9.0,67,0.00,,,0.00,,2013-06-16 11:02:00,
2013-06-16 07:12:00,66.0,55.0,29.86,NW,321,3.0,9.0,68,0.00,,,0.00,,2013-06-16 11:12:00,
2013-06-16 07:22:00,66.0,55.0,29.86,West,276,3.0,11.0,68,0.00,,,0.00,,2013-06-16 11:22:00,
2013-06-16 07:34:00,67.0,56.0,29.85,NW,305,0.0,9.0,68,0.00,,,0.00,,2013-06-16 11:34:00,
2013-06-16 07:43:00,67.0,56.0,29.85,NW,321,3.0,8.0,68,0.00,,,0.00,,2013-06-16 11:43:00,
2013-06-16 07:52:00,67.0,56.0,29.85,West,267,3.0,7.0,68,0.00,,,0.00,,2013-06-16 11:52:00,
2013-06-16 08:02:00,67.0,56.0,29.85,WNW,296,1.0,11.0,68,0.00,,,0.00,,2013-06-16 12:02:00,
2013-06-16 08:12:00,67.0,56.0,29.84,WNW,298,1.0,10.0,68,0.00,,,0.00,,2013-06-16 12:12:00,
2013-06-16 08:22:00,67.0,56.0,29.83,West,281,3.0,9.0,69,0.00,,,0.00,,2013-06-16 12:22:00,
2013-06-16 08:33:00,67.0,56.0,29.83,NNW,331,2.0,11.0,69,0.00,,,0.00,,2013-06-16 12:33:00,
2013-06-16 08:43:00,67.0,56.0,29.82,West,271,2.0,7.0,69,0.00,,,0.00,,2013-06-16 12:43:00,
2013-06-16 08:53:00,68.0,57.0,29.82,WNW,284,2.0,14.0,69,0.00,,,0.00,,2013-06-16 12:53:00,
2013-06-16 09:01:00,68.0,57.0,29.81,NW,309,2.0,7.0,69,0.00,,,0.00,,2013-06-16 13:01:00,
2013-06-16 09:12:00,68.0,57.0,29.80,WNW,295,4.0,7.0,69,0.00,,,0.00,,2013-06-16 13:12:00,
2013-06-16 09:22:00,68.0,57.0,29.80,WNW,296,2.0,7.0,69,0.00,,,0.00,,2013-06-16 13:22:00,
2013-06-16 09:34:00,68.0,57.0,29.79,NW,306,2.0,10.0,69,0.00,,,0.00,,2013-06-16 13:34:00,
2013-06-16 09:43:00,68.0,57.0,29.79,WNW,292,5.0,10.0,69,0.00,,,0.00,,2013-06-16 13:43:00,
2013-06-16 09:53:00,68.0,57.0,29.78,NNW,331,4.0,10.0,69,0.00,,,0.00,,2013-06-16 13:53:00,
2013-06-16 10:02:00,67.0,58.0,29.78,NNW,330,3.0,11.0,73,0.00,,,0.00,,2013-06-16 14:02:00,
2013-06-16 10:12:00,66.0,58.0,29.78,NW,309,1.0,11.0,76,0.01,,,0.01,,2013-06-16 14:12:00,
2013-06-16 10:22:00,65.0,58.0,29.78,NW,323,2.0,9.0,79,0.03,,,0.03,,2013-06-16 14:22:00,
2013-06-16 10:34:00,64.0,58.0,29.77,WNW,296,1.0,7.0,81,0.11,,,0.11,,2013-06-16 14:34:00,
2013-06-16 10:43:00,63.0,58.0,29.76,WSW,250,0.0,3.0,84,0.11,,,0.11,,2013-06-16 14:43:00,
2013-06-16 10:52:00,62.0,57.0,29.75,SW,227,1.0,4.0,85,0.11,,,0.11,,2013-06-16 14:52:00,
2013-06-16 11:02:00,62.0,58.0,29.74,SW,226,0.0,4.0,86,0.12,,,0.12,,2013-06-16 15:02:00,
2013-06-16 11:12:00,62.0,58.0,29.74,SW,226,0.0,1.0,87,0.11,,,0.12,,2013-06-16 15:12:00,
2013-06-16 11:23:00,62.0,58.0,29.75,SW,226,0.0,1.0,87,0.09,,,0.12,,2013-06-16 15:23:00,
2013-06-16 11:34:00,62.0,58.0,29.74,WSW,252,0.0,3.0,88,0.06,,,0.17,,2013-06-16 15:34:00,
2013-06-16 11:43:00,62.0,58.0,29.73,WNW,284,1.0,4.0,88,0.09,,,0.20,,2013-06-16 15:43:00,
2013-06-16 11:52:00,63.0,60.0,29.72,WNW,284,0.0,1.0,89,0.10,,,0.22,,2013-06-16 15:52:00,
2013-06-16 12:02:00,63.0,60.0,29.72,WNW,284,0.0,1.0,89,0.10,,,0.22,,2013-06-16 16:02:00,
2013-06-16 12:12:00,63.0,60.0,29.71,WNW,284,0.0,1.0,89,0.10,,,0.22,,2013-06-16 16:12:00,
2013-06-16 12:23:00,64.0,61.0,29.71,West,280,0.0,2.0,89,0.10,,,0.22,,2013-06-16 16:23:00,
2013-06-16 12:33:00,64.0,61.0,29.71,West,279,0.0,4.0,89,0.05,,,0.22,,2013-06-16 16:33:00,
2013-06-16 12:43:00,64.0,61.0,29.71,NW,323,0.0,5.0,89,0.05,,,0.24,,2013-06-16 16:43:00,
2013-06-16 12:53:00,65.0,62.0,29.70,NW,323,2.0,7.0,90,0.08,,,0.30,,2013-06-16 16:53:00,
2013-06-16 13:02:00,65.0,62.0,29.70,NW,323,2.0,7.0,90,0.08,,,0.30,,2013-06-16 17:02:00,
2013-06-16 13:12:00,65.0,62.0,29.70,NW,323,3.0,10.0,90,0.08,,,0.30,,2013-06-16 17:12:00,
2013-06-16 13:22:00,65.0,62.0,29.71,NNW,347,6.0,14.0,90,0.09,,,0.31,,2013-06-16 17:22:00,
2013-06-16 13:34:00,65.0,62.0,29.71,NNW,342,7.0,15.0,91,0.10,,,0.32,,2013-06-16 17:34:00,
2013-06-16 13:43:00,65.0,62.0,29.71,NNW,347,3.0,10.0,91,0.09,,,0.33,,2013-06-16 17:43:00,
2013-06-16 13:53:00,65.0,62.0,29.72,NNW,342,4.0,11.0,91,0.07,,,0.34,,2013-06-16 17:53:00,
2013-06-16 14:02:00,66.0,63.0,29.71,North,11,4.0,11.0,91,0.04,,,0.34,,2013-06-16 18:02:00,
2013-06-16 14:12:00,66.0,64.0,29.71,NNW,327,2.0,9.0,92,0.04,,,0.34,,2013-06-16 18:12:00,
2013-06-16 14:22:00,66.0,63.0,29.72,NNE,16,5.0,15.0,91,0.03,,,0.34,,2013-06-16 18:22:00,
2013-06-16 14:34:00,66.0,63.0,29.72,North,5,3.0,13.0,91,0.02,,,0.34,,2013-06-16 18:34:00,
2013-06-16 14:43:00,66.0,63.0,29.72,NNE,17,4.0,13.0,91,0.01,,,0.34,,2013-06-16 18:43:00,
2013-06-16 14:52:00,67.0,64.0,29.73,North,11,4.0,12.0,91,0.00,,,0.34,,2013-06-16 18:52:00,
2013-06-16 15:01:00,67.0,64.0,29.74,NNE,17,3.0,6.0,91,0.00,,,0.34,,2013-06-16 19:01:00,
2013-06-16 15:12:00,67.0,64.0,29.74,NNE,17,3.0,6.0,91,0.00,,,0.34,,2013-06-16 19:12:00,
2013-06-16 15:22:00,68.0,65.0,29.74,NNE,15,3.0,10.0,91,0.00,,,0.34,,2013-06-16 19:22:00,
2013-06-16 15:34:00,68.0,65.0,29.75,NNE,13,3.0,10.0,90,0.00,,,0.34,,2013-06-16 19:34:00,
2013-06-16 15:43:00,67.0,64.0,29.74,NNE,22,2.0,10.0,90,0.00,,,0.34,,2013-06-16 19:43:00,
2013-06-16 15:54:00,67.0,64.0,29.75,NNE,19,3.0,7.0,90,0.00,,,0.34,,2013-06-16 19:54:00,
2013-06-16 16:02:00,69.0,66.0,29.75,North,360,1.0,13.0,89,0.00,,,0.34,,2013-06-16 20:02:00,
2013-06-16 16:12:00,70.0,66.0,29.75,NNE,28,0.0,6.0,88,0.00,,,0.34,,2013-06-16 20:12:00,
2013-06-16 16:22:00,70.0,66.0,29.75,North,360,1.0,9.0,86,0.00,,,0.34,,2013-06-16 20:22:00,
2013-06-16 16:33:00,70.0,65.0,29.75,NNE,12,3.0,7.0,85,0.00,,,0.34,,2013-06-16 20:33:00,
2013-06-16 16:42:00,70.0,65.0,29.75,North,360,1.0,5.0,84,0.00,,,0.34,,2013-06-16 20:42:00,
2013-06-16 16:53:00,71.0,66.0,29.75,NNW,329,2.0,5.0,84,0.00,,,0.34,,2013-06-16 20:53:00,
2013-06-16 17:02:00,71.0,66.0,29.76,North,9,0.0,5.0,84,0.00,,,0.34,,2013-06-16 21:02:00,
2013-06-16 17:11:00,71.0,66.0,29.76,North,10,1.0,4.0,83,0.00,,,0.34,,2013-06-16 21:11:00,
2013-06-16 17:22:00,72.0,66.0,29.76,NW,315,0.0,7.0,81,0.00,,,0.34,,2013-06-16 21:22:00,
2013-06-16 17:33:00,72.0,66.0,29.76,NNE,16,2.0,6.0,81,0.00,,,0.34,,2013-06-16 21:33:00,
2013-06-16 17:42:00,73.0,66.0,29.76,North,9,2.0,6.0,80,0.00,,,0.34,,2013-06-16 21:42:00,
2013-06-16 17:53:00,73.0,66.0,29.76,North,360,0.0,5.0,79,0.00,,,0.34,,2013-06-16 21:53:00,
2013-06-16 18:01:00,73.0,66.0,29.76,NNW,327,0.0,7.0,80,0.00,,,0.34,,2013-06-16 22:01:00,
2013-06-16 18:12:00,73.0,65.0,29.76,NNE,21,2.0,9.0,77,0.00,,,0.34,,2013-06-16 22:12:00,
2013-06-16 18:22:00,74.0,66.0,29.77,NNE,22,4.0,7.0,77,0.00,,,0.34,,2013-06-16 22:22:00,
2013-06-16 18:32:00,74.0,67.0,29.77,North,360,3.0,11.0,78,0.00,,,0.34,,2013-06-16 22:32:00,
2013-06-16 18:42:00,74.0,66.0,29.77,North,5,5.0,13.0,77,0.00,,,0.34,,2013-06-16 22:42:00,
2013-06-16 18:52:00,74.0,66.0,29.77,NNE,14,3.0,16.0,77,0.00,,,0.34,,2013-06-16 22:52:00,
2013-06-16 19:02:00,74.0,66.0,29.78,North,9,2.0,11.0,76,0.00,,,0.34,,2013-06-16 23:02:00,
2013-06-16 19:11:00,74.0,66.0,29.78,NNE,17,4.0,10.0,76,0.00,,,0.34,,2013-06-16 23:11:00,
2013-06-16 19:22:00,74.0,66.0,29.78,NNE,28,3.0,11.0,75,0.00,,,0.34,,2013-06-16 23:22:00,
2013-06-16 19:32:00,74.0,66.0,29.78,NNE,15,5.0,12.0,75,0.00,,,0.34,,2013-06-16 23:32:00,
2013-06-16 19:42:00,74.0,66.0,29.79,NNE,19,4.0,15.0,76,0.00,,,0.34,,2013-06-16 23:42:00,
2013-06-16 19:52:00,74.0,66.0,29.79,NNE,14,1.0,11.0,76,0.00,,,0.34,,2013-06-16 23:52:00,
2013-06-16 20:02:00,74.0,66.0,29.79,NNW,336,3.0,10.0,76,0.00,,,0.34,,2013-06-17 00:02:00,
2013-06-16 20:12:00,73.0,65.0,29.79,North,360,6.0,17.0,76,0.00,,,0.34,,2013-06-17 00:12:00,
2013-06-16 20:22:00,73.0,65.0,29.80,NNE,12,4.0,20.0,76,0.00,,,0.34,,2013-06-17 00:22:00,
2013-06-16 20:32:00,72.0,64.0,29.80,NNE,26,4.0,13.0,76,0.00,,,0.34,,2013-06-17 00:32:00,
2013-06-16 20:43:00,72.0,64.0,29.80,North,11,3.0,10.0,76,0.00,,,0.34,,2013-06-17 00:43:00,
2013-06-16 20:52:00,72.0,64.0,29.80,North,360,9.0,15.0,76,0.00,,,0.34,,2013-06-17 00:52:00,
2013-06-16 21:02:00,72.0,64.0,29.81,NNW,348,5.0,15.0,76,0.00,,,0.34,,2013-06-17 01:02:00,
2013-06-16 21:12:00,72.0,64.0,29.81,North,360,2.0,11.0,77,0.00,,,0.34,,2013-06-17 01:12:00,
2013-06-16 21:22:00,72.0,64.0,29.81,North,349,7.0,15.0,77,0.00,,,0.34,,2013-06-17 01:22:00,
2013-06-16 21:32:00,71.0,63.0,29.81,NNW,336,2.0,10.0,77,0.00,,,0.34,,2013-06-17 01:32:00,
2013-06-16 21:43:00,71.0,64.0,29.81,NNE,15,5.0,10.0,78,0.00,,,0.34,,2013-06-17 01:43:00,
2013-06-16 21:53:00,70.0,63.0,29.82,North,5,5.0,10.0,79,0.00,,,0.34,,2013-06-17 01:53:00,
2013-06-16 22:03:00,70.0,63.0,29.82,North,10,6.0,10.0,79,0.00,,,0.34,,2013-06-17 02:03:00,
2013-06-16 22:12:00,70.0,64.0,29.83,NNW,346,4.0,10.0,80,0.00,,,0.34,,2013-06-17 02:12:00,
2013-06-16 22:22:00,69.0,63.0,29.83,NNE,14,4.0,12.0,80,0.00,,,0.34,,2013-06-17 02:22:00,
2013-06-16 22:34:00,69.0,63.0,29.83,NNW,327,2.0,7.0,81,0.00,,,0.34,,2013-06-17 02:34:00,
2013-06-16 22:43:00,69.0,63.0,29.83,NNW,342,3.0,8.0,81,0.00,,,0.34,,2013-06-17 02:43:00,
2013-06-16 22:53:00,68.0,62.0,29.83,North,355,3.0,6.0,82,0.00,,,0.34,,2013-06-17 02:53:00,
2013-06-16 23:02:00,68.0,62.0,29.83,North,10,3.0,6.0,82,0.00,,,0.34,,2013-06-17 03:02:00,
2013-06-16 23:12:00,68.0,62.0,29.83,North,360,1.0,10.0,82,0.00,,,0.34,,2013-06-17 03:12:00,
2013-06-16 23:22:00,68.0,63.0,29.83,North,355,2.0,6.0,83,0.00,,,0.34,,2013-06-17 03:22:00,
2013-06-16 23:33:00,67.0,62.0,29.83,NNW,347,1.0,7.0,83,0.00,,,0.34,,2013-06-17 03:33:00,
2013-06-16 23:44:00,67.0,62.0,29.83,NNW,343,1.0,6.0,83,0.00,,,0.34,,2013-06-17 03:44:00,
2013-06-16 23:53:00,67.0,62.0,29.83,NNW,338,3.0,6.0,83,0.00,,,0.34,,2013-06-17 03:53:00,